Change the Weather History Date:

Wednesday, September 4, 2013

  Actual Average Record
Temperature  
Mean Temperature 44 °F -  
Max Temperature 46 °F 56 °F - ()
Min Temperature 39 °F 38 °F - ()
Degree Days  
Heating Degree Days 22    
Moisture  
Dew Point 39 °F    
Average Humidity 85    
Maximum Humidity 100    
Minimum Humidity 66    
Precipitation  
Precipitation 0.00 in - - ()
Sea Level Pressure  
Sea Level Pressure 29.93 in    
Wind  
Wind Speed 12 mph ()    
Max Wind Speed 31 mph    
Max Gust Speed 46 mph    
Visibility 6.1 miles    
Events Rain , Hail    
T = Trace of Precipitation, MM = Missing Value Source: Averaged Metar Reports

Daily Weather History Graph

Daily Weather History Graph

Search for Another Location

Airport or City:

Trip Planner

Search our weather history database for the weather conditions in past years. The results will help you decide how hot, cold, wet, or windy it might be!

Date:

Astronomy

Sep. 04, 2013 Rise Set
Actual Time 6:52 AM NZST 6:06 PM NZST
Civil Twilight 6:23 AM NZST 6:35 PM NZST
Nautical Twilight 5:50 AM NZST 7:08 PM NZST
Astronomical Twilight 5:17 AM NZST 7:41 PM NZST
Moon 5:43 AM NZST (9/4) 4:54 PM NZST (9/4)
Length of Visible Light 12h 11m
Length of Day
11h 14m
Waning Crescent, 2% of the Moon is Illuminated
Sep 4
Waning Crescent
Sep 5
New
Sep 13
First Quarter
Sep 19
Full
Sep 27
Last Quarter

Hourly Weather History & Observations

Time (NZST) Temp. Windchill Dew Point Humidity Pressure Visibility Wind Dir Wind Speed Gust Speed Precip Events Conditions
12:00 AM 42.8 °F 41.1 °F 41.0 °F 93% 30.01 in - NE 3.5 mph - N/A   Clear
12:30 AM 41.0 °F 38.0 °F 39.2 °F 93% 29.98 in 6.2 mi ENE 4.6 mph - N/A   Overcast
1:00 AM 41.0 °F 38.0 °F 39.2 °F 93% 29.95 in 6.2 mi East 4.6 mph - N/A   Partly Cloudy
1:30 AM 46.4 °F 42.4 °F 42.8 °F 87% 29.92 in 6.2 mi East 8.1 mph - N/A   Mostly Cloudy
2:00 AM 44.6 °F 40.7 °F 41.0 °F 87% 29.89 in 6.2 mi East 6.9 mph - N/A   Overcast
2:30 AM 46.4 °F 42.9 °F 42.8 °F 87% 29.86 in 6.2 mi East 6.9 mph - N/A   Mostly Cloudy
3:00 AM 44.6 °F 42.2 °F 41.0 °F 87% 29.83 in 6.2 mi ENE 4.6 mph - N/A   Overcast
3:30 AM 44.6 °F 42.2 °F 41.0 °F 87% 29.80 in 6.2 mi NE 4.6 mph - N/A   Overcast
4:00 AM 44.6 °F 43.1 °F 41.0 °F 87% 29.77 in 6.2 mi NE 3.5 mph - N/A   Overcast
4:30 AM 44.6 °F 43.1 °F 41.0 °F 87% 29.74 in 6.2 mi NE 3.5 mph - N/A   Overcast
5:00 AM 42.8 °F 39.3 °F 41.0 °F 93% 29.74 in 6.2 mi NE 5.8 mph - N/A   Overcast
5:30 AM 44.6 °F 43.1 °F 41.0 °F 87% 29.74 in 6.2 mi NNE 3.5 mph - N/A   Overcast
6:00 AM 44.6 °F 43.1 °F 41.0 °F 87% 29.71 in 6.2 mi North 3.5 mph - N/A   Overcast
6:30 AM 46.4 °F 45.2 °F 41.0 °F 81% 29.74 in 6.2 mi SW 3.5 mph - N/A   Overcast
7:00 AM 46.4 °F 38.5 °F 42.8 °F 87% 29.77 in 6.2 mi SW 21.9 mph - N/A Rain Light Rain
7:30 AM 44.6 °F 34.6 °F 42.8 °F 93% 29.80 in 5.0 mi SSW 31.1 mph 42.6 mph N/A Rain Light Rain
8:00 AM 44.6 °F 35.1 °F 41.0 °F 87% 29.80 in 6.2 mi South 27.6 mph - N/A Rain Light Rain
8:30 AM 42.8 °F 32.7 °F 39.2 °F 87% 29.83 in 6.2 mi SSW 27.6 mph - N/A Rain Light Rain
9:00 AM 42.8 °F 34.5 °F 41.0 °F 93% 29.86 in 5.6 mi South 18.4 mph - N/A Rain Light Rain Showers
9:30 AM 44.6 °F 37.8 °F 41.0 °F 87% 29.86 in 6.2 mi SSW 15.0 mph - N/A Rain Light Rain Showers
10:00 AM 42.8 °F 37.0 °F 42.8 °F 100% 29.89 in - WSW 10.4 mph - N/A Rain Rain
10:30 AM 44.6 °F 38.1 °F 41.0 °F 87% 29.89 in 6.2 mi SW 13.8 mph - N/A Rain Light Rain
11:00 AM 44.6 °F 38.1 °F 42.8 °F 93% 29.89 in 6.2 mi WSW 13.8 mph - N/A Rain Light Rain
11:30 AM 42.8 °F 34.3 °F 39.2 °F 87% 29.89 in 6.2 mi SW 19.6 mph - N/A Rain Rain
12:00 PM 42.8 °F 35.1 °F 41.0 °F 93% 29.89 in 6.2 mi WSW 16.1 mph - N/A Rain Light Rain
12:30 PM 44.6 °F 37.2 °F 41.0 °F 87% 29.89 in 6.2 mi WSW 17.3 mph - N/A Rain Light Rain Showers
1:00 PM 44.6 °F 36.6 °F 42.8 °F 93% 29.89 in 6.2 mi WSW 19.6 mph - N/A Rain Light Rain Showers
1:30 PM 44.6 °F 37.2 °F 42.8 °F 93% 29.89 in 4.3 mi SW 17.3 mph - N/A Rain Light Rain Showers
2:00 PM 44.6 °F 35.9 °F 41.0 °F 87% 29.89 in 5.6 mi SSW 23.0 mph - N/A Hail Light Hail
2:30 PM 46.4 °F 39.0 °F 42.8 °F 87% 29.89 in 6.2 mi South 19.6 mph 32.2 mph N/A Rain Light Rain Showers
3:00 PM 46.4 °F 37.0 °F 41.0 °F 81% 29.89 in 6.2 mi SSW 31.1 mph 46.0 mph N/A Rain Light Rain Showers
3:30 PM 46.4 °F 37.5 °F 41.0 °F 81% 29.92 in 5.0 mi South 27.6 mph - N/A Rain Light Rain Showers
4:00 PM 44.6 °F 35.5 °F 41.0 °F 87% 29.92 in 6.2 mi South 25.3 mph - N/A Rain Light Rain Showers
4:30 PM 41.0 °F 29.8 °F 41.0 °F 100% 29.95 in - South 29.9 mph 42.6 mph N/A Rain Rain
5:00 PM 42.8 °F 32.9 °F 39.2 °F 87% 29.98 in 6.2 mi South 26.5 mph 39.1 mph N/A Rain Light Rain
5:30 PM 44.6 °F 36.1 °F 39.2 °F 81% 30.01 in 6.2 mi South 21.9 mph 33.4 mph N/A Rain Light Rain Showers
6:00 PM 44.6 °F 35.5 °F 35.6 °F 71% 30.01 in 6.2 mi South 25.3 mph 38.0 mph N/A   Overcast
6:30 PM 44.6 °F 35.7 °F 35.6 °F 71% 30.04 in 6.2 mi SSW 24.2 mph - N/A   Mostly Cloudy
7:00 PM 44.6 °F 35.7 °F 37.4 °F 76% 30.06 in 6.2 mi SSW 24.2 mph - N/A Rain Light Rain Showers
7:30 PM 44.6 °F 36.4 °F 33.8 °F 66% 30.09 in 6.2 mi SSW 20.7 mph 32.2 mph N/A Rain Light Rain Showers
8:00 PM 42.8 °F 35.1 °F 33.8 °F 70% 30.09 in 6.2 mi SSW 16.1 mph - N/A   Mostly Cloudy
8:30 PM 42.8 °F 34.5 °F 33.8 °F 70% 30.12 in 6.2 mi SSW 18.4 mph - N/A   Mostly Cloudy
9:00 PM 42.8 °F 35.1 °F 33.8 °F 70% 30.15 in 6.2 mi SW 16.1 mph - N/A   Mostly Cloudy
9:30 PM 42.8 °F 35.1 °F 32.0 °F 66% 30.15 in 6.2 mi SW 16.1 mph - N/A   Scattered Clouds
10:00 PM 41.0 °F 33.1 °F 33.8 °F 76% 30.15 in 6.2 mi SW 15.0 mph - N/A Rain Light Rain
10:30 PM 41.0 °F 34.3 °F 33.8 °F 76% 30.18 in 6.2 mi WSW 11.5 mph - N/A   Mostly Cloudy
11:00 PM 41.0 °F 33.9 °F 33.8 °F 76% 30.18 in 6.2 mi WSW 12.7 mph - N/A Rain Light Rain Showers
11:30 PM 39.2 °F 32.5 °F 32.0 °F 75% 30.18 in 6.2 mi WSW 10.4 mph - N/A   Partly Cloudy